Location: Oberwangen
(47.4286°N, 8.9679°E)
Time: 11:20:35
(UTC+00:00)

Cosmos 1816 Rocket - Pass Details

Date: 26 October 2021
Orbit: 952 x 998 km, 82.9° (Epoch: 08 December)

Event Time Altitude Azimuth Distance (km) Brightness Sun altitude
Rises 20:56:20 0° 336° (NNW) 3,655 8.1 -45.7°
Reaches altitude 10° 21:00:02 10° 314° (NW) 2,711 7.4 -46.2°
Enters shadow 21:02:50 14° 286° (WNW) 2,399 6.9 -46.6°
